[[{"header":{"parameterUnit":"m.s-1","parameterCategory":1,"la1":30.2991,"la2":30.254,"lo1":-89.0895,"lo2":-89.0444,"dx":0.0017,"dy":0.0017,"nx":28,"ny":28,"refTime":"2022-11-15T09:00:00:Z","depth":0,"parameterNumber":2,"parameterNumberName":"U-component_of_WINDS"},"data":[0,0,0,0,0,0,0,0,0,0,0,0,0,0,0,0,0,0,0,0,0,0,0,0,0,0,0,0,0,0,0,0,0,0,0,0,0,0,0,0,0,0,0,0,0,0,0,0,0,0,0,0,0,0,0,0,0,0,0.2782,0.2782,0,0.2744,0.2744,0.2744,0.2769,0.277,0.2771,0.2772,0.273,0.2728,0.2726,0,0,0,0,0,0,0,0,0,0,0,0,0,0.2874,0.2872,0.2782,0.2782,0.2781,0.2744,0.2744,0.2743,0.2769,0.277,0.2772,0.2773,0.2731,0.2728,0.2725,0,0,0,0,0,0,0,0,0,0,0,0,0,0.2835,0.2871,0.2782,0.279,0.279,0.2745,0.2744,0.2743,0.2768,0.277,0.2772,0.2774,0.2732,0.2728,0.2725,0.2669,0,0,0.2715,0.2714,0,0,0,0,0,0,0,0,0.2837,0.2831,0.2789,0.2789,0.2789,0.2763,0.2761,0.2718,0.2768,0.2776,0.2772,0.2774,0.2739,0.2736,0.2725,0.2668,0.2666,0.2715,0.2713,0.2711,0.271,0,0,0,0,0,0,0,0.284,0.2833,0.2767,0.2788,0.2788,0.2794,0.279,0.2753,0.2748,0.2776,0.2778,0.2773,0.274,0.2728,0.2724,0.2665,0.2715,0.2712,0.271,0.2708,0.256,0.2559,0,0,0,0,0,0,0.2842,0.2835,0.2768,0.2766,0.2818,0.2791,0.2787,0.277,0.2749,0.2748,0.2772,0.2774,0.2732,0.2728,0.2722,0.2655,0.2711,0.2708,0.2706,0.2562,0.256,0.2558,0,0,0,0,0,0,0.2844,0.2836,0.277,0.2801,0.2793,0.2787,0.2768,0.2768,0.2756,0.2746,0.2745,0.276,0.2734,0.2727,0.2683,0.2654,0.2707,0.2704,0.2565,0.2562,0.2559,0.252,0,0,0,0,0,0,0.2846,0.2836,0.2816,0.2801,0.2791,0.2731,0.2766,0.2766,0.2751,0.2754,0.2735,0.2733,0.2735,0.2687,0.2679,0.265,0.2701,0.2567,0.2563,0.256,0.2524,0.2517,0.251,0,0,0,0,0,0.285,0.2806,0.2814,0.2806,0.2765,0.273,0.2724,0.2728,0.2748,0.2727,0.2721,0.2734,0.2659,0.2683,0.2674,0.2643,0.2569,0.2564,0.256,0.2527,0.2518,0.251,0,0,0,0,0,0,0.2816,0.2804,0.2813,0.2763,0.2748,0.2734,0.2707,0.2718,0.2695,0.2699,0.2703,0.2699,0.2652,0.2644,0.267,0.2588,0.2617,0.2611,0.2595,0.2586,0.2579,0.2581,0.2698,0,0,0,0,0,0.2803,0.2776,0.2766,0.2723,0.2715,0.2712,0.2697,0.2701,0.2685,0.2678,0.2668,0.265,0.2623,0.2605,0.2579,0.2524,0.252,0.2499,0.2492,0.2486,0.248,0.2449,0.244,0.2544,0.2544,0.2544,0,0,0.2775,0.2765,0.2747,0.2716,0.2704,0.2675,0.2706,0.2674,0.2652,0.2672,0.263,0.2622,0.2603,0.2553,0.2531,0.2545,0.2451,0.2481,0.2476,0.2473,0.2444,0.2434,0.2425,0.2541,0.2541,0.2542,0,0,0.2709,0.27,0.2662,0.265,0.2633,0.2632,0.2623,0.2608,0.2604,0.2562,0.2577,0.2551,0.2504,0.2489,0.2476,0.2406,0.2417,0.2398,0.236,0.233,0.2322,0.2315,0.2288,0.2279,0.2392,0.2392,0.2392,0,0.2676,0.2633,0.2641,0.2608,0.2593,0.2612,0.2574,0.2562,0.2536,0.2525,0.2542,0.2484,0.2472,0.2419,0.2402,0.2391,0.238,0.2399,0.2323,0.2316,0.2309,0.2284,0.2274,0.239,0.239,0.239,0.239,0,0.2593,0.2564,0.2536,0.2512,0.2494,0.2459,0.246,0.2441,0.2448,0.2445,0.2402,0.2389,0.2361,0.2349,0.2355,0.2297,0.2306,0.2323,0.2351,0.2297,0.2273,0.2264,0.2386,0.2387,0.2388,0.2388,0,0,0.2502,0.2484,0.2474,0.2463,0.2446,0.2423,0.2389,0.2362,0.2346,0.2328,0.2298,0.2259,0.2275,0.226,0.2264,0.2239,0.2183,0.2259,0.2258,0.2243,0.2117,0.2102,0.2091,0.2191,0.219,0.2188,0.2118,0,0.2433,0.2374,0.238,0.2323,0.2295,0.2314,0.2284,0.227,0.2267,0.2242,0.2239,0.221,0.2234,0.2225,0.2201,0.2195,0.2157,0.22,0.2162,0.216,0.2163,0.2079,0.2063,0.1997,0.2109,0.2107,0.2106,0,0.2345,0.2325,0.2266,0.2253,0.2242,0.2215,0.2191,0.2169,0.2153,0.2153,0.2136,0.2146,0.211,0.2142,0.2092,0.2121,0.2107,0.2101,0.2099,0.2093,0.2128,0.2069,0.1976,0.1965,0.2092,0.2093,0.2094,0,0.2282,0.2241,0.22,0.2191,0.2176,0.2156,0.2149,0.2135,0.2119,0.2099,0.2089,0.2064,0.205,0.2031,0.2033,0.2056,0.1982,0.2014,0.1979,0.1979,0.196,0.1961,0.1862,0.1955,0.1955,0.1955,0.1955,0,0.2203,0.2165,0.2171,0.2145,0.2104,0.2112,0.207,0.2065,0.2053,0.2026,0.2042,0.2016,0.2022,0.1996,0.1998,0.1956,0.195,0.1948,0.1948,0.1945,0.1945,0.1933,0.1936,0.1953,0.1953,0.1954,0.1954,0,0.2124,0.2127,0.2083,0.2074,0.2071,0.204,0.2031,0.2007,0.2006,0.1972,0.1964,0.1962,0.1933,0.1934,0.1901,0.1902,0.185,0.1857,0.1855,0.1855,0.182,0.1822,0.1707,0.1692,0.1797,0.1796,0.1795,0,0.2073,0.2044,0.2032,0.2016,0.2008,0.1981,0.1965,0.1973,0.1956,0.1937,0.1914,0.1887,0.1865,0.1817,0.1812,0.1787,0.1791,0.1753,0.1787,0.1785,0.1788,0.1789,0.1785,0.1745,0.1744,0.1743,0.1742,0,0.198,0.1983,0.196,0.1938,0.1919,0.1902,0.1886,0.1872,0.1878,0.1858,0.1829,0.1812,0.1779,0.175,0.1726,0.1718,0.173,0.1732,0.1722,0.1717,0.1716,0.1714,0.1834,0.1734,0.1735,0.1735,0.1736,0.1736,0.1911,0.1887,0.1875,0.1849,0.1838,0.1823,0.18,0.1797,0.1773,0.1747,0.1754,0.172,0.1706,0.1676,0.1665,0.1639,0.1652,0.1639,0.1635,0.163,0.1625,0.1723,0.1635,0.1635,0.1635,0.1636,0.1636,0,0.1818,0.1811,0.1788,0.1766,0.1745,0.1762,0.1746,0.1727,0.1698,0.1684,0.1663,0.1629,0.1603,0.1597,0.1571,0.1551,0.1556,0.1544,0.1544,0.1541,0.1616,0.1626,0.154,0.154,0.154,0.154,0.154,0.154,0.1766,0.1725,0.1727,0.1681,0.1675,0.1643,0.1632,0.1619,0.1608,0.157,0.1548,0.1546,0.1535,0.1509,0.1485,0.1484,0.1472,0.1457,0.1458,0.1527,0.1536,0.1545,0.1555,0.1455,0.1455,0.1386,0.1385,0.1384]},{"header":{"parameterUnit":"m.s-1","parameterCategory":1,"la1":30.2991,"la2":30.254,"lo1":-89.0895,"lo2":-89.0444,"dx":0.0017,"dy":0.0017,"nx":28,"ny":28,"refTime":"2022-11-15T09:00:00:Z","depth":0,"parameterNumber":3,"parameterNumberName":"V-component_of_WINDS"},"data":[0,0,0,0,0,0,0,0,0,0,0,0,0,0,0,0,0,0,0,0,0,0,0,0,0,0,0,0,0,0,0,0,0,0,0,0,0,0,0,0,0,0,0,0,0,0,0,0,0,0,0,0,0,0,0,0,0,0,-6.3399,-6.3401,0,-6.3582,-6.3584,-6.3586,-6.3522,-6.3518,-6.3514,-6.351,-6.3694,-6.3703,-6.3711,0,0,0,0,0,0,0,0,0,0,0,0,0,-6.299,-6.2998,-6.3399,-6.3401,-6.3404,-6.3582,-6.3584,-6.3587,-6.3523,-6.3518,-6.3513,-6.3508,-6.3691,-6.3702,-6.3712,0,0,0,0,0,0,0,0,0,0,0,0,0,-6.317,-6.3001,-6.3399,-6.3393,-6.3395,-6.3581,-6.3584,-6.3587,-6.3524,-6.3518,-6.3512,-6.3506,-6.3688,-6.3701,-6.3713,-6.3915,0,0,-6.3753,-6.3759,0,0,0,0,0,0,0,0,-6.316,-6.3185,-6.3392,-6.3394,-6.3396,-6.3523,-6.3508,-6.3697,-6.3525,-6.3475,-6.351,-6.3503,-6.3642,-6.3658,-6.3706,-6.3924,-6.3932,-6.3754,-6.3762,-6.3768,-6.3771,0,0,0,0,0,0,0,-6.3147,-6.3177,-6.3471,-6.3395,-6.3397,-6.338,-6.3399,-6.3543,-6.359,-6.3479,-6.3474,-6.3497,-6.3642,-6.3694,-6.371,-6.3934,-6.3754,-6.3765,-6.3773,-6.3779,-6.4327,-6.4333,0,0,0,0,0,0,-6.3134,-6.3167,-6.3465,-6.3477,-6.3261,-6.3393,-6.3414,-6.3488,-6.3588,-6.3598,-6.3502,-6.3493,-6.3674,-6.3695,-6.3716,-6.3959,-6.3768,-6.378,-6.3787,-6.432,-6.4328,-6.4335,0,0,0,0,0,0,-6.3126,-6.3162,-6.3458,-6.3321,-6.3357,-6.3406,-6.349,-6.3495,-6.3547,-6.3606,-6.3614,-6.3547,-6.367,-6.3698,-6.3866,-6.3964,-6.3786,-6.3798,-6.4312,-6.4322,-6.4332,-6.4446,0,0,0,0,0,0,-6.3114,-6.3159,-6.3237,-6.3323,-6.3365,-6.3607,-6.3497,-6.3503,-6.357,-6.356,-6.365,-6.3659,-6.3668,-6.3847,-6.3879,-6.3979,-6.3808,-6.4303,-6.4317,-6.4328,-6.4434,-6.4459,-6.4481,0,0,0,0,0,-6.31,-6.3262,-6.3242,-6.3278,-6.3464,-6.3613,-6.3636,-6.3644,-6.3578,-6.3656,-6.3694,-6.3656,-6.3948,-6.3865,-6.3901,-6.4006,-6.4297,-6.4313,-6.4328,-6.4424,-6.4454,-6.448,0,0,0,0,0,0,-6.3185,-6.3273,-6.3252,-6.3446,-6.3523,-6.3602,-6.3701,-6.3677,-6.3773,-6.376,-6.3764,-6.3785,-6.3958,-6.3998,-6.3904,-6.4206,-6.4113,-6.4136,-6.4174,-6.4203,-6.4226,-6.4213,-6.3818,0,0,0,0,0,-6.3226,-6.3341,-6.3411,-6.3576,-6.3615,-6.3652,-6.3717,-6.3716,-6.3795,-6.3827,-6.3877,-6.3955,-6.4064,-6.4135,-6.4239,-6.4439,-6.4458,-6.4529,-6.4552,-6.4571,-6.4591,-6.47,-6.4732,-6.4385,-6.4385,-6.4385,0,0,-6.3313,-6.3375,-6.3447,-6.3594,-6.3654,-6.3772,-6.368,-6.3808,-6.3895,-6.3846,-6.4009,-6.4049,-6.4135,-6.432,-6.4404,-6.4359,-6.4691,-6.4591,-6.4605,-6.4615,-6.4719,-6.4751,-6.4781,-6.4396,-6.4394,-6.4392,0,0,-6.3531,-6.359,-6.3734,-6.3795,-6.3886,-6.3909,-6.3944,-6.4027,-6.4052,-6.4216,-6.4182,-6.4284,-6.4472,-6.4535,-6.4592,-6.4833,-6.4802,-6.4867,-6.4989,-6.5095,-6.5122,-6.5146,-6.5232,-6.5263,-6.4886,-6.4887,-6.4887,0,-6.3627,-6.3804,-6.381,-6.3942,-6.4007,-6.397,-6.4115,-6.4173,-6.4294,-6.4339,-6.4287,-6.4522,-6.4577,-6.4777,-6.4836,-6.4883,-6.4922,-6.4857,-6.5118,-6.5142,-6.5165,-6.5247,-6.5279,-6.4894,-6.4893,-6.4892,-6.4892,0,-6.3918,-6.4041,-6.4146,-6.4264,-6.4341,-6.4479,-6.4504,-6.4581,-6.4574,-6.4602,-6.4769,-6.4834,-6.495,-6.4997,-6.4991,-6.5196,-6.5165,-6.5116,-6.5022,-6.5205,-6.5282,-6.5314,-6.4905,-6.4902,-6.49,-6.4898,0,0,-6.4195,-6.4315,-6.4353,-6.4406,-6.4504,-6.4599,-6.4734,-6.4849,-6.4915,-6.4999,-6.5112,-6.5272,-6.5227,-6.5291,-6.5291,-6.5384,-6.5571,-6.5323,-6.5325,-6.5367,-6.5801,-6.5838,-6.5874,-6.555,-6.5556,-6.5561,-6.5794,0,-6.4421,-6.4661,-6.4669,-6.4887,-6.5001,-6.4966,-6.5084,-6.5156,-6.5186,-6.5286,-6.5317,-6.5431,-6.5363,-6.5401,-6.5492,-6.5529,-6.5658,-6.5512,-6.5655,-6.566,-6.5635,-6.5915,-6.5955,-6.6171,-6.5824,-6.5829,-6.5833,0,-6.4717,-6.4812,-6.5042,-6.5123,-6.5171,-6.5277,-6.5383,-6.5479,-6.5559,-6.5574,-6.5646,-6.5633,-6.5769,-6.5671,-6.586,-6.576,-6.5819,-6.5846,-6.5854,-6.5868,-6.5758,-6.5936,-6.624,-6.6273,-6.588,-6.5876,-6.5873,0,-6.4897,-6.5081,-6.5242,-6.5289,-6.5388,-6.5463,-6.5507,-6.5582,-6.565,-6.5742,-6.5786,-6.5893,-6.5951,-6.6033,-6.6048,-6.5975,-6.6237,-6.6139,-6.6252,-6.6252,-6.631,-6.6306,-6.6628,-6.6347,-6.6346,-6.6346,-6.6345,0,-6.5149,-6.5291,-6.5325,-6.5424,-6.5581,-6.5589,-6.5745,-6.5783,-6.585,-6.5955,-6.5931,-6.603,-6.6043,-6.6146,-6.6158,-6.6312,-6.6338,-6.6354,-6.6355,-6.6357,-6.6355,-6.6395,-6.6381,-6.6354,-6.6353,-6.6351,-6.6349,0,-6.5377,-6.5405,-6.5578,-6.5658,-6.5681,-6.5794,-6.5861,-6.5956,-6.5982,-6.6116,-6.6148,-6.619,-6.6309,-6.6331,-6.6472,-6.648,-6.6664,-6.665,-6.6637,-6.6636,-6.6748,-6.6737,-6.7107,-6.7156,-6.6843,-6.6846,-6.6848,0,-6.5536,-6.5644,-6.5736,-6.5805,-6.5854,-6.5966,-6.6035,-6.6047,-6.6121,-6.622,-6.6303,-6.6419,-6.6513,-6.6704,-6.6747,-6.6854,-6.6842,-6.6965,-6.6858,-6.6856,-6.6845,-6.6838,-6.6849,-6.6985,-6.6989,-6.6991,-6.6994,0,-6.5816,-6.5824,-6.5927,-6.6035,-6.6119,-6.6204,-6.6284,-6.6342,-6.6364,-6.6448,-6.657,-6.6643,-6.6786,-6.6902,-6.7009,-6.7052,-6.7028,-6.7027,-6.7059,-6.7061,-6.7049,-6.7058,-6.6693,-6.7018,-6.7016,-6.7014,-6.7013,-6.7012,-6.6014,-6.6109,-6.6189,-6.6303,-6.6365,-6.6441,-6.6534,-6.6572,-6.6675,-6.6794,-6.6793,-6.6927,-6.7004,-6.7144,-6.7195,-6.7299,-6.726,-6.7306,-6.7318,-6.7329,-6.734,-6.7033,-6.7318,-6.7318,-6.7317,-6.7316,-6.7316,0,-6.6293,-6.6343,-6.6448,-6.6562,-6.6652,-6.6621,-6.6708,-6.6785,-6.6903,-6.6978,-6.7071,-6.7211,-6.7323,-6.7374,-6.7484,-6.7557,-6.7548,-6.7586,-6.7581,-6.7591,-6.7368,-6.733,-6.7591,-6.7591,-6.7591,-6.7591,-6.7591,-6.7591,-6.6449,-6.6608,-6.6626,-6.6815,-6.6863,-6.6994,-6.7047,-6.7116,-6.7176,-6.7333,-6.7427,-6.746,-6.7525,-6.7639,-6.774,-6.7752,-6.7794,-6.7837,-6.7844,-6.7635,-6.7607,-6.758,-6.7544,-6.7846,-6.7847,-6.8058,-6.806,-6.8062]}]]